This is the latest recevied weather packets stored in our database for station/object KC5TIL-3. If no packets are shown the sender has not sent any weather packets the latest 10 day(s).
| Time | Temp. | Humidity | Pressure | Rain* | Wind** | Luminosity | Snow |
|---|---|---|---|---|---|---|---|
| 1787673032 | 31.11° C | 19% | 1014.8 hPa | 0 mm | 2.68 m/s, 112° | - | - |
| 1787672734 | 30.56° C | 19% | 1014.8 hPa | 0 mm | 3.58 m/s, 188° | - | - |
| 1787672433 | 30.56° C | 20% | 1014.8 hPa | 0 mm | 2.24 m/s, 186° | - | - |
| 1787672135 | 30.56° C | 20% | 1014.8 hPa | 0 mm | 2.68 m/s, 214° | - | - |
| 1787671836 | 30° C | 21% | 1014.8 hPa | 0 mm | 3.58 m/s, 200° | - | - |
| 1787671535 | 30° C | 21% | 1014.8 hPa | 0 mm | 2.24 m/s, 165° | - | - |
| 1787671232 | 30° C | 22% | 1014.8 hPa | 0 mm | 2.68 m/s, 165° | - | - |
| 1787670934 | 29.44° C | 23% | 1014.8 hPa | 0 mm | 2.68 m/s, 223° | - | - |
| 1787670632 | 28.89° C | 24% | 1014.8 hPa | 0 mm | 2.68 m/s, 183° | - | - |
| 1787670334 | 28.89° C | 24% | 1014.8 hPa | 0 mm | 3.13 m/s, 203° | - | - |
| 1787670036 | 28.89° C | 24% | 1014.8 hPa | 0 mm | 2.24 m/s, 190° | - | - |
| 1787669735 | 28.89° C | 25% | 1014.8 hPa | 0 mm | 2.24 m/s, 173° | - | - |
| 1787669436 | 28.33° C | 25% | 1014.8 hPa | 0 mm | 3.13 m/s, 171° | - | - |
| 1787669138 | 28.33° C | 25% | 1014.8 hPa | 0 mm | 1.79 m/s, 175° | - | - |
| 1787668837 | 28.33° C | 25% | 1014.8 hPa | 0 mm | 1.79 m/s, 145° | - | - |
| 1787668539 | 28.33° C | 25% | 1014.8 hPa | 0 mm | 1.79 m/s, 134° | - | - |
| 1787668240 | 28.33° C | 25% | 1014.8 hPa | 0 mm | 2.68 m/s, 150° | - | - |
| 1787667939 | 28.33° C | 25% | 1014.8 hPa | 0 mm | 3.13 m/s, 141° | - | - |
| 1787667641 | 28.33° C | 25% | 1014.8 hPa | 0 mm | 2.68 m/s, 169° | - | - |
| 1787667343 | 28.33° C | 25% | 1015.8 hPa | 0 mm | 1.79 m/s, 145° | - | - |
| 1787667041 | 28.33° C | 25% | 1015.8 hPa | 0 mm | 3.13 m/s, 114° | - | - |
| 1787666743 | 28.33° C | 24% | 1015.8 hPa | 0 mm | 3.13 m/s, 113° | - | - |
| 1787666445 | 28.33° C | 24% | 1015.8 hPa | 0 mm | 2.24 m/s, 107° | - | - |
| 1787666144 | 28.33° C | 23% | 1015.8 hPa | 0 mm | 2.68 m/s, 119° | - | - |
| 1787665845 | 28.33° C | 23% | 1015.8 hPa | 0 mm | 2.24 m/s, 128° | - | - |
* Rain latest hour (hover to see other rain measurements)
** Current wind speed in m/s (hover to see current wind gust speed)